Regional Weather Roundup
Issued by NWS

Home | Current Version | Previous Version | Text Only | Print | Product List | Glossary Off
Versions: 1 2 3 4 5 6 7 8 9 10 11 12 13 14 15 16 17 18 19 20 21 22 23 24 25 26 27 28 29 30 31 32 33 34 35 36 37 38 39 40 41 42 43 44 45 46 47 48 49 50

000
ASUS43 KBIS 161502
RWRND

NORTH DAKOTA REGIONAL WEATHER ROUNDUP
NATIONAL WEATHER SERVICE BISMARCK ND
900 AM CST SAT DEC 16 2017

NOTE: "FAIR" INDICATES FEW OR NO CLOUDS BELOW 12,000 FEET WITH NO
SIGNIFICANT WEATHER AND/OR OBSTRUCTIONS TO VISIBILITY.


NDZ001>003-009>011-017-161600-
NORTHWEST NORTH DAKOTA

CITY           SKY/WX    TMP DP  RH WIND       PRES   REMARKS
WILLISTON        N/A     25  20  81 W6        29.89R WCI  18
MINOT          CLOUDY    36  30  79 W12       29.82R
MINOT AFB      CLOUDY    34  29  84 NW12      29.80R
$$

NDZ018>021-031>035-040>046-161600-
SOUTHWEST NORTH DAKOTA

CITY           SKY/WX    TMP DP  RH WIND       PRES   REMARKS
BISMARCK       CLEAR     34  31  88 W8        29.87R
DICKINSON      CLOUDY    27  24  89 NW9       29.86R WCI  18
GARRISON         N/A     33  30  88 W13       29.83R
HETTINGER ARPT PTCLDY    26  24  92 NW5       29.90R
$$

NDZ004>008-012>016-024-026-027-054-161600-
NORTHEAST NORTH DAKOTA

CITY           SKY/WX    TMP DP  RH WIND       PRES   REMARKS
GRAND FORKS    CLOUDY    22  18  85 CALM      29.82R
GRND FRKS AFB  CLOUDY    21  18  87 S3        29.82R
DEVILS LAKE    CLOUDY    24  23  96 W3        29.79R FOG
$$

NDZ022-023-025-028>030-036>039-047>053-161600-
SOUTHEAST NORTH DAKOTA

CITY           SKY/WX    TMP DP  RH WIND       PRES   REMARKS
FARGO          CLOUDY    27  24  89 S5        29.82R
JAMESTOWN      CLOUDY    36  33  89 NW12      29.80R
$$





USA.gov is the U.S. government's official web portal to all federal, state and local government web resources and services.